Qianfan Jigui 02-09

operational
NORAD ID: 61560 Int'l Des: 2024-185 Owner: YUANX Country: CN Constellation: qianfan
LEOCIRCULARPOLAR

About Qianfan Jigui 02-09

Description loading...

Live Position

Loading 3D Globe...

Upcoming Passes

Altitude History

Altitude vs Time

uPlot chart will show altitude changes over time

Two-Line Element Set

1 61560U 24185J 26063.13789558 .00000749 00000-0 29945-3 0 9993
2 61560 88.9747 67.3823 0008827 36.5305 323.6489 14.27441688 81772
Epoch: Mar 4, 2026 • Age: 9 hours

Current Status

Altitude 807.9 km
Velocity 7.45 km/s
Sub-Earth Point 3.62°N, 52.55°W
Launch Date Oct 15, 2024
Age 1.3 years
Type internet

Technical Details

Classification Payload
Mass 267.00 kg
Dry Mass 267.00 kg
Total Mass 267.00 kg
Length 0.30 m
Diameter 3.00 m
Span 10.00 m
Shape Box+pan
Manufacturer GESIH/SECM
Bus Type Qianfan
Phase Status In Orbit
Owner/State YUANX/CN

Large Constellations

Loading constellations...